Location: Blankensee
(53.5126°N, 14.3055°E)
Time: 18:55:25
(UTC+00:00)

Cosmos 1766 - Pass Details

Date: 08 August 2020
Orbit: 522 x 543 km, 82.5° (Epoch: 20 September)

Event Time Altitude Azimuth Distance (km) Brightness Sun altitude
Exits shadow 00:41:55 25° 150° (SSE) 1,098 4.5 -17.6°
Maximum altitude 00:43:45 43° 94° (E) 760 4.1 -17.5°
Drops below altitude 10° 00:47:27 10° 23° (NNE) 1,783 7.2 -17.3°
Sets 00:49:40 0° 17° (NNE) 2,675 8.5 -17.1°
